Other Public Products
Issued by NWS Grand Forks, ND

Home | Current Version | Previous Version | Text Only | Print | Product List | Glossary Off
Versions: 1 2 3 4 5 6 7 8 9 10 11 12 13 14 15 16 17 18 19 20 21 22 23 24 25 26 27 28 29 30 31 32 33 34 35 36 37 38 39 40 41 42 43 44 45 46 47 48 49 50

000
FPUS83 KFGF 262331
OPUFGF
PRAIRIE TO PINES WEATHER ROUNDUP
NATIONAL WEATHER SERVICE EASTERN NORTH DAKOTA/GRAND FORKS ND
600 PM CDT TUE AUG 26 2014

 **SATELLITE DATA USED TO AUGMENT SKY COVER AT AUTOMATED STATIONS**
 *****  WEATHER ACROSS EASTERN NORTH DAKOTA  *****

CITY           SKY/WX    TMP DP  RH WIND       PRES   REMARKS
GRAND FORKS    PTSUNNY   66  53  63 CALM      30.13F
GRAND FORKS AF FAIR      67  55  65 CALM      30.14S
GRAND CITY NWS   N/A     66 N/A N/A MISG        N/A
BUXTON           N/A     64  56  76 S3          N/A
DEVILS LAKE    FAIR      66  46  48 SW7       30.11F
FARGO          CLOUDY    67  50  54 NW6       30.14F
WAHPETON ARPT  MOCLDY    64  50  59 CALM      30.16F
$$

 *****  WEATHER ACROSS CENTRAL AND WESTERN NORTH DAKOTA  *****

CITY           SKY/WX    TMP DP  RH WIND       PRES   REMARKS
JAMESTOWN      LGT RAIN  60  56  86 W6        30.15F
BISMARCK       CLOUDY    59  54  83 CALM      30.16F
MINOT          FAIR      70  45  40 SE6       30.11F
MINOT AFB      FAIR      70  47  43 VRB2      30.10F
GARRISON         N/A     66  51  58 VRB3      30.13F
WILLISTON      SUNNY     72  44  36 CALM      30.10F
DICKINSON      SUNNY     64  53  67 S8        30.12F
HETTINGER      MOSUNNY   65  53  65 SE7       30.15S
$$

 *****  OTHER OBSERVATIONS NORTHEAST NORTH DAKOTA  *****

CITY           SKY/WX    TMP DP  RH WIND       PRES   REMARKS
WALHALLA         N/A     66  45  45 SW5       30.12S
LANGDON        FAIR      66  46  48 W10       30.13S
CAVALIER       FAIR      68  46  45 CALM      30.12S
GRAFTON        FAIR      68  48  49 W9        30.12F
CANDO          FAIR      64  50  59 NW3       30.13S
FORT TOTTEN      N/A     69  54  58 N2        29.95
ROLLA          FAIR      64  45  48 W7        30.14S
RUGBY          FAIR      66  48  52 CALM      30.12F
 ***** THE ABOVE OBSERVATIONS ARE NON NWS ARE NOT QUALITY
        CONTROLLED AND MAY MIS-REPORT RAIN FOR SNOW...
$$

 *****  OTHER OBSERVATIONS SOUTHEAST NORTH DAKOTA *****

CITY           SKY/WX    TMP DP  RH WIND       PRES   REMARKS
COOPERSTOWN    NOT AVBL
VALLEY CITY    LGT RAIN  59  59 100 W5        30.16S
OAKES            N/A     64  55  72 SE8       30.15F
GWINNER        MOCLDY    66  54  63 CALM      30.17F
BUFFALO          N/A     61  55  81 CALM        N/A
WYNDMERE       NOT AVBL
 ***** THE ABOVE OBSERVATIONS ARE NON NWS ARE NOT QUALITY
       CONTROLLED AND MAY MIS-REPORT RAIN FOR SNOW...
$$

  *****  WEATHER ACROSS NORTHERN MINNESOTA  *****

CITY           SKY/WX    TMP DP  RH WIND       PRES   REMARKS
FLAG ISLAND    FAIR      57  48  72 W12       30.13F
WARROAD        CLOUDY    57  50  77 W6        30.17R
ROSEAU         FAIR      61  48  63 NW3       30.16S
HALLOCK        FAIR      66  48  52 N6        30.13S
THF RVR FALLS  PTSUNNY   63  46  55 CALM      30.15S
HALSTAD          N/A     65  50  59 CALM        N/A
FOSSTON        FAIR      61  46  59 W3        30.16F
BAUDETTE       CLOUDY    58  47  66 VRB5      30.16S
WASKISH        FAIR      61  48  63 W7        30.17S
CROOKSTON      FAIR      64  52  63 CALM      30.15S
$$
  *****  WEATHER ACROSS CENTRAL AND WEST MINNESOTA  *****

CITY           SKY/WX    TMP DP  RH WIND       PRES   REMARKS
BEMIDJI        FAIR      61  47  59 NW8       30.16S
PARK RAPIDS    FAIR      64  48  56 NW9       30.16F
WADENA         PTSUNNY   63  52  67 W3        30.17S
DETROIT LAKES  PTSUNNY   63  52  67 N3        30.18S
MOORHEAD       PTSUNNY   68  54  60 CALM      30.15F
FERGUS FALLS   FAIR      66  50  55 W3        30.16S
ELBOW LAKE     MOCLDY    65  54  67 W3        30.17S
MORRIS MN      LGT RAIN  63  55  77 CALM      30.18S
STAPLES        FAIR      63  52  67 NW7       30.17R
WHEATON        FAIR      61  54  77 S3        30.20R
$$
  *****  WEATHER ELSEWHERE ACROSS MINNESOTA  *****

CITY           SKY/WX    TMP DP  RH WIND       PRES   REMARKS
DULUTH         PTSUNNY   66  49  54 NW8       30.13S
INTRNTL FALLS  CLOUDY    57  48  72 W6        30.15S
ELY            CLOUDY    61  48  63 NW6       30.12F
CLOQUET        FAIR      63  48  59 NW8       30.15R
BRAINERD       FAIR      65  50  58 N9        30.16S
HIBBING        PTSUNNY   62  47  57 NW12      30.15S
ALEXANDRIA     PTSUNNY   65  53  65 W7        30.19R
SAINT CLOUD    FAIR      70  52  52 N6        30.15S
MINNEAPOLIS    PTSUNNY   74  49  41 NW8       30.13F
$$

  *****  WEATHER ACROSS SOUTH DAKOTA  *****

CITY           SKY/WX    TMP DP  RH WIND       PRES   REMARKS
SIOUX FALLS    PTSUNNY   73  56  54 NE8       30.14F
BROOKINGS      NOT AVBL
WATERTOWN      PTSUNNY   66  54  65 CALM      30.17F
HURON          PTSUNNY   69  53  56 E6        30.13F
SISSETON         N/A     64  55  72 S3        30.17S
ABERDEEN       CLOUDY    61  53  75 E7        30.17F
MITCHELL       MOSUNNY   73  58  59 E7        30.12F
PIERRE         MOSUNNY   72  56  57 E13       30.09F
MOBRIDGE       PTSUNNY   67  55  65 NE10      30.12S
RAPID CITY     PTSUNNY   75  58  55 N8        30.10S
$$

  *****  SOME WEATHER IN NEARBY STATES *****

CITY           SKY/WX    TMP DP  RH WIND       PRES   REMARKS
GLASGOW MT     SUNNY     74  50  42 S8        30.06F
GREAT FALLS MT SUNNY     78  42  27 SW7       30.06F
CHEYENNE WY    CLOUDY    70  57  63 S14G31    30.22S
SCOTTSBLUFF NE PTSUNNY   81  58  45 SE17G23   30.07S
OMAHA NE       LGT RAIN  76  66  71 E7        30.10F
DES MOINES IA  PTSUNNY   79  63  57 E3        30.10F
DAVENPORT IA   FAIR      79  65  62 NE3       30.10S
CHICAGO IL     PTSUNNY   85  65  51 CALM      30.06F
EAU CLAIRE WI  FAIR      71  52  50 NW7       30.13S
LA CROSSE WI   FAIR      73  55  53 N8        30.13S
$$

  *****  SOME NATIONAL WEATHER *****

CITY           SKY/WX    TMP DP  RH WIND       PRES   REMARKS
LA GUARDIA NY  FAIR      79  61  53 S12       30.07S
RALEIGH NC     MOCLDY    78  61  55 NE8       30.10R
ATLANTA GA     FAIR      85  52  32 NE9       30.06S
NEW ORLEANS LA CLOUDY    86  69  56 VRB7      29.95S HX  90
OKLAHOMA CITY  FAIR      95  65  37 SE15G21   29.99F HX  97
ALBUQUERQUE NM CLOUDY    77  51  40 SW8       30.20S
SALT LAKE CITY CLOUDY    77  40  26 E6        30.06F
LOS ANGELES CA MOSUNNY   74  61  63 W17       29.95F
BOISE ID       SUNNY     81  46  29 W8        30.05F
SEATTLE WA     SUNNY     86  48  26 W6        30.02F
$$

*** WEATHER ACROSS MANITOBA...SASKATCHEWAN AND ONTARIO ***
                ***ONTARIO***

CITY           SKY/WX    TMP DP  RH WIND       PRES   REMARKS
GERALDTON      CLOUDY    59  50  72 W10       30.02R
THUNDER BAY    CLOUDY    63  50  63 W10       30.08R
SIOUX LOOKOUT  CLOUDY    55  46  71 NW8       30.09S
TORONTO        PTSUNNY   84  70  61 SW16      29.98S
BIG TROUT LK   LGT RAIN  48  46  93 NE6       30.03S
PICKLE LAKE    LGT RAIN  52  46  82 W3        30.05R
DRYDEN         CLOUDY    57  46  67 W9        30.10S
KENORA         PTSUNNY   59  46  63 NW5       30.13R
$$
                *** MANITOBA***

CITY           SKY/WX    TMP DP  RH WIND       PRES   REMARKS
BRANDON        MOSUNNY   66  48  52 W8        30.12S
DAUPHIN        SUNNY     66  48  52 W5        30.08F
ISLAND LAKE    LGT RAIN N/A N/A N/A N10         N/A
PILOT MOUND      N/A     64  45  48 W7          N/A
THE PAS        MOSUNNY   64  46  52 SE13      30.00F
THOMPSON       PTSUNNY   57  45  62 S8        30.04F
WINNIPEG       MOSUNNY   63  45  51 VRB3      30.14S
LYNN LAKE      PTSUNNY   64  41  42 MISG      29.92F
CHURCHILL      MOSUNNY   59  39  47 S14       29.97F
GILLAM         MOSUNNY   57  41  54 S7        30.06F
$$
                ***SASKATCHEWAN***

CITY           SKY/WX    TMP DP  RH WIND       PRES   REMARKS
ESTEVAN        MOSUNNY   68  46  45 CALM      30.12S
KINDERSLEY     MOSUNNY   81  45  28 SW8       29.94F
LLOYDMINSTER   PTSUNNY   75  50  41 W13       29.88F
PRINCE ALBERT  MOSUNNY   75  52  43 SW12      29.93F
REGINA         SUNNY     70  50  49 SW9       30.06S
YORKTON        SUNNY     70  48  46 W10G17    30.06F


USA.gov is the U.S. government's official web portal to all federal, state and local government web resources and services.